Riverside, CA

10:02 AM PST on December 16, 2017 (GMT -0800)
Riverside Municipal

Weather History for KRAL - January, 2014

Change the Weather History Date:

Friday, January 31, 2014

  Actual Average Record
Temperature  
Mean Temperature 58 °F 55 °F  
Max Temperature 62 °F 66 °F 93 °F (2003)
Min Temperature 53 °F 44 °F 25 °F (1946)
Degree Days  
Heating Degree Days 7 10  
Month to date heating degree days 128 314  
Since 1 July heating degree days 516 845  
Cooling Degree Days 0 0  
Month to date cooling degree days 19 6  
Year to date cooling degree days 19 6  
Growing Degree Days 4 (Base 50)    
Moisture  
Dew Point 47 °F    
Average Humidity 68    
Maximum Humidity 89    
Minimum Humidity 46    
Precipitation  
Precipitation T in 0.09 in 0.82 in (1979)
Month to date precipitation T 2.94  
Year to date precipitation T 2.94  
Since 1 July precipitation 1.15  
Snow  
Snow 0.00 in - - ()
Month to date snowfall 0.0  
Year to date snowfall 0.0  
Snow Depth 0.00 in    
Sea Level Pressure  
Sea Level Pressure 29.89 in    
Wind  
Wind Speed 8 mph (West)    
Max Wind Speed 15 mph    
Max Gust Speed 20 mph    
Visibility 10 miles    
Events Rain    
T = Trace of Precipitation, MM = Missing Value Source: NWS Daily Summary

Daily Weather History Graph

Daily Weather History Graph

Search for Another Location

Airport or City:

Trip Planner

Search our weather history database for the weather conditions in past years. The results will help you decide how hot, cold, wet, or windy it might be!

Date:

Astronomy

Jan. 31, 2014 Rise Set
Actual Time 6:47 AM PST 5:19 PM PST
Civil Twilight 6:21 AM PST 5:45 PM PST
Nautical Twilight 5:51 AM PST 6:15 PM PST
Astronomical Twilight 5:21 AM PST 6:45 PM PST
Moon 7:05 AM PST (1/31) 6:43 PM PST (1/31)
Length of Visible Light 11h 24m
Length of Day
10h 32m
New Moon, 1% of the Moon is Illuminated
Jan 31
New Moon
Feb 6
First Quarter
Feb 14
Full
Feb 22
Last Quarter
Mar 1
New

Hourly Weather History & Observations

Time (PST) Temp. Dew Point Humidity Pressure Visibility Wind Dir Wind Speed Gust Speed Precip Events Conditions
12:22 AM 55.0 °F 51.1 °F 86% 29.89 in 10.0 mi West 11.5 mph - N/A   Overcast
12:40 AM 55.0 °F 50.0 °F 83% 29.89 in 10.0 mi West 9.2 mph - N/A   Overcast
12:50 AM 55.4 °F 50.0 °F 82% 29.89 in 10.0 mi West 6.9 mph - N/A   Overcast
12:53 AM 55.0 °F 50.0 °F 83% 29.86 in 10.0 mi West 9.2 mph - N/A   Overcast
1:53 AM 55.0 °F 50.0 °F 83% 29.86 in 10.0 mi West 11.5 mph - N/A   Overcast
2:53 AM 55.0 °F 48.9 °F 80% 29.85 in 10.0 mi West 9.2 mph - N/A   Overcast
3:51 AM 55.4 °F 48.2 °F 77% 29.88 in 10.0 mi WSW 8.1 mph - N/A   Overcast
3:53 AM 55.0 °F 48.9 °F 80% 29.85 in 10.0 mi West 6.9 mph - N/A   Overcast
4:41 AM 54.0 °F 50.0 °F 86% 29.88 in 10.0 mi West 5.8 mph - 0.00 in Rain Light Rain
4:53 AM 54.0 °F 48.9 °F 83% 29.86 in 10.0 mi West 8.1 mph - 0.00 in   Overcast
5:00 AM 54.0 °F 48.9 °F 83% 29.89 in 10.0 mi WSW 6.9 mph - N/A   Overcast
5:07 AM 54.0 °F 48.9 °F 83% 29.89 in 10.0 mi West 9.2 mph - N/A   Overcast
5:24 AM 54.0 °F 48.9 °F 83% 29.90 in 10.0 mi WSW 10.4 mph - N/A   Overcast
5:33 AM 54.0 °F 48.9 °F 83% 29.90 in 10.0 mi WSW 6.9 mph - N/A   Overcast
5:43 AM 53.1 °F 48.9 °F 86% 29.90 in 10.0 mi WSW 10.4 mph - N/A   Overcast
5:50 AM 53.6 °F 50.0 °F 88% 29.91 in 10.0 mi WSW 9.2 mph - N/A   Overcast
5:53 AM 53.1 °F 50.0 °F 89% 29.88 in 10.0 mi WSW 9.2 mph - N/A   Overcast
6:00 AM 53.1 °F 50.0 °F 89% 29.91 in 10.0 mi WSW 9.2 mph - N/A   Overcast
6:53 AM 53.1 °F 48.9 °F 86% 29.90 in 10.0 mi West 5.8 mph - 0.00 in   Overcast
7:53 AM 53.1 °F 48.9 °F 86% 29.91 in 10.0 mi West 4.6 mph - 0.00 in   Overcast
8:53 AM 54.0 °F 48.0 °F 80% 29.94 in 10.0 mi West 8.1 mph - N/A   Mostly Cloudy
9:53 AM 57.0 °F 45.0 °F 64% 29.95 in 10.0 mi WSW 10.4 mph - N/A   Mostly Cloudy
10:53 AM 57.9 °F 44.1 °F 60% 29.94 in 10.0 mi West 5.8 mph - N/A   Mostly Cloudy
11:53 AM 59.0 °F 43.0 °F 55% 29.91 in 10.0 mi Variable 4.6 mph - N/A   Scattered Clouds
12:53 PM 60.1 °F 42.1 °F 51% 29.88 in 10.0 mi Variable 3.5 mph - N/A   Mostly Cloudy
1:53 PM 61.0 °F 41.0 °F 48% 29.86 in 10.0 mi West 8.1 mph - N/A   Mostly Cloudy
2:53 PM 61.0 °F 39.9 °F 46% 29.86 in 10.0 mi West 4.6 mph - N/A   Mostly Cloudy
3:53 PM 60.1 °F 42.1 °F 51% 29.87 in 10.0 mi West 8.1 mph - N/A   Mostly Cloudy
4:53 PM 59.0 °F 42.1 °F 53% 29.87 in 10.0 mi WNW 3.5 mph - N/A   Overcast
5:53 PM 57.0 °F 44.1 °F 62% 29.88 in 10.0 mi WNW 5.8 mph - N/A   Mostly Cloudy
6:53 PM 55.9 °F 44.1 °F 64% 29.89 in 10.0 mi West 3.5 mph - N/A   Clear
7:53 PM 55.0 °F 44.1 °F 67% 29.91 in 10.0 mi Calm Calm - N/A   Clear
8:53 PM 53.1 °F 44.1 °F 71% 29.91 in 10.0 mi Calm Calm - N/A   Clear
9:53 PM 51.1 °F 43.0 °F 74% 29.91 in 10.0 mi East 4.6 mph - N/A   Clear
10:53 PM 48.9 °F 42.1 °F 77% 29.92 in 10.0 mi ENE 5.8 mph - N/A   Clear
11:53 PM 48.0 °F 42.1 °F 80% 29.93 in 10.0 mi East 3.5 mph - N/A   Clear